Home > Time Zones > World Clock > Weather > U.S.A. > Yuma > Past weeks

Flag for U.S.A. Weather past 2 weeks in Yuma, Arizona, U.S.A.

Now
64 °F

Clear.


Feels Like: 64 °F
Forecast: 62 / 79 °F
Wind: 12 mph from Northwest

Location: Yuma Marine Corps Air Station

Current Time: May 22, 2015 at 3:11:20 AM

Latest Report: May 22, 2015 at 1:57 AM


Visibility: 10 mi

Pressure: 29.85 "Hg

Humidity: 43%

Dew point: 41 °F

Location of YumaLocation

Historic Weather in Yuma — Graph

°F

Yuma temperature yesterday

Maximum temperature yesterday: 85 °F (at 2:57 PM)
Minimum temperature yesterday: 66 °F (at 11:57 PM)
Average temperature yesterday: 75 °F

Past Weeks' High & Low Weather Summary

 TemperatureHumidityPressure
High96 °F (May 11, 4:57 PM)96% (May 16, 5:57 AM)30.00 "Hg (May 16, 5:57 AM)
Low51 °F (May 16, 5:57 AM)10% (May 11, 4:57 PM)29.67 "Hg (May 7, 5:57 PM)
Average74 °F37%29.84 "Hg
* Reported May 7 1:57 AM — May 22 1:57 AM, Yuma, Weather by CustomWeather, © 2015

Note: Actual official high and low records may vary slightly from our data, if they occured in-between our weather recording intervals... More about our weather records

Advertising

Yuma weather history for previous 24 hours

 ConditionsComfort  
Time TempWeatherWind HumidityBarometerVisibility
1:57 AM
Fri, May 22
64 °FClear.12 mph43%29.85 "Hg10 mi
12:57 AM65 °FClear.6 mph39%29.85 "Hg10 mi
11:57 PM
Thu, May 21
66 °FClear.13 mph39%29.84 "Hg10 mi
10:57 PM67 °FPassing clouds.13 mph37%29.84 "Hg10 mi
9:57 PM68 °FPassing clouds.16 mph36%29.83 "Hg10 mi
8:57 PM71 °FClear.14 mph30%29.81 "Hg10 mi
7:57 PM74 °FPassing clouds.15 mph28%29.78 "Hg10 mi
6:57 PM78 °FPassing clouds.14 mph25%29.76 "Hg10 mi
5:57 PM81 °FPassing clouds.13 mph21%29.75 "Hg10 mi
4:57 PM84 °FPassing clouds.12 mph20%29.75 "Hg10 mi
3:57 PM84 °FPassing clouds.12 mph19%29.76 "Hg10 mi
2:57 PM85 °FPassing clouds.13 mph17%29.78 "Hg10 mi
1:57 PM84 °FScattered clouds.9 mph19%29.78 "Hg10 mi
12:57 PM81 °FScattered clouds.6 mph23%29.80 "Hg10 mi
11:57 AM79 °FScattered clouds.3 mph28%29.80 "Hg10 mi
10:57 AM78 °FScattered clouds.8 mph28%29.81 "Hg10 mi
9:57 AM76 °FPartly sunny.9 mph27%29.81 "Hg10 mi
8:57 AM74 °FPartly sunny.7 mph31%29.81 "Hg10 mi
7:57 AM70 °FBroken clouds.8 mph34%29.81 "Hg10 mi
6:57 AM69 °FBroken clouds.3 mph35%29.80 "Hg10 mi
5:57 AM70 °FPartly sunny.8 mph29%29.78 "Hg10 mi
4:57 AM70 °FClear.9 mph29%29.78 "Hg10 mi
3:57 AM72 °FClear.7 mph28%29.78 "Hg10 mi
Weather by CustomWeather, © 2015

See weather overviewHow to use our weather pages